Retour au catalogue

THORAD DELTA 1 DEB

ActifLEO
NORAD 8161·DEBRIS·🇺🇸 United States

Lancé Nov 15, 1974 depuis Vandenberg Space Force Base

Loading…

Prochains Passages (prochaines 24 heures)

TLE

FraisSource: Space-Track

Époque: Sep 14, 2026, 13:27 UTC

1 08161U 74089AB  26257.56072333 -.00000122  00000-0 -87658-3 0  9999
2 08161 101.2083 278.6287 0371569 354.0380 160.5563 11.99604302598404

Suivez THORAD DELTA 1 DEB en temps réel avec AllMySat

Download on the App Store